This is the latest recevied weather packets stored in our database for station/object CA3SQH-10. If no packets are shown the sender has not sent any weather packets the latest 10 day(s).
| Time | Temp. | Humidity | Pressure | Rain* | Wind** | Luminosity | Snow |
|---|---|---|---|---|---|---|---|
| 1777700643 | 11.67° C | 66% | 941.2 hPa | - | - | - | - |
| 1777699743 | 12.22° C | 64% | 941.4 hPa | - | - | - | - |
| 1777698842 | 12.22° C | 67% | 941.4 hPa | - | - | - | - |
| 1777697942 | 12.78° C | 66% | 941.5 hPa | - | - | - | - |
| 1777697042 | 12.78° C | 64% | 941.4 hPa | - | - | - | - |
| 1777696142 | 12.78° C | 67% | 941.6 hPa | - | - | - | - |
| 1777695242 | 12.22° C | 70% | 941.8 hPa | - | - | - | - |
| 1777694341 | 12.78° C | 67% | 941.9 hPa | - | - | - | - |
| 1777693441 | 12.78° C | 68% | 942.1 hPa | - | - | - | - |
| 1777692541 | 13.33° C | 69% | 942.2 hPa | - | - | - | - |
| 1777691641 | 12.78° C | 69% | 942.3 hPa | - | - | - | - |
| 1777690741 | 13.33° C | 69% | 942.3 hPa | - | - | - | - |
| 1777689840 | 13.89° C | 67% | 942.3 hPa | - | - | - | - |
| 1777688940 | 13.89° C | 67% | 942.3 hPa | - | - | - | - |
| 1777688040 | 13.89° C | 68% | 942.4 hPa | - | - | - | - |
| 1777687140 | 13.33° C | 69% | 942.5 hPa | - | - | - | - |
| 1777686240 | 13.89° C | 68% | 942.4 hPa | - | - | - | - |
| 1777685339 | 13.89° C | 70% | 942.4 hPa | - | - | - | - |
| 1777684439 | 14.44° C | 69% | 942.4 hPa | - | - | - | - |
| 1777683539 | 14.44° C | 69% | 942.3 hPa | - | - | - | - |
| 1777682639 | 14.44° C | 69% | 942.3 hPa | - | - | - | - |
| 1777681739 | 15° C | 69% | 942.5 hPa | - | - | - | - |
| 1777680838 | 15° C | 68% | 942.5 hPa | - | - | - | - |
| 1777679938 | 15° C | 69% | 942.5 hPa | - | - | - | - |
| 1777679042 | 15° C | 68% | 942.4 hPa | - | - | - | - |
* Rain since midnight (hover to see other rain measurements)
** Current wind speed in m/s (hover to see current wind gust speed)